When you browse on this site, cookies collect data to enhance your experience and personalize the content and advertising you see.
Visit our Privacy Policy to learn more. By continuing to use the site, you agree to this use of cookies and data.
EN

Hourly Weather Dym-Tamak

Today, 21 September, Monday

Time Temperature Precipitation Wind Pressure Humidity
00:00 +3°C° 0 mm 5 mps 741 mmHg 91%
01:00 +3°C° 0 mm 5 mps 741 mmHg 93%
02:00 +3°C° 0 mm 5 mps 742 mmHg 92%
03:00 +3°C° 0 mm 5 mps 743 mmHg 90%
04:00 +3°C° 0 mm 6 mps 743 mmHg 89%
05:00 +4°C° 0 mm 6 mps 743 mmHg 88%
06:00 +5°C° 0 mm 5 mps 744 mmHg 87%
07:00 +5°C° 0 mm 5 mps 744 mmHg 86%
08:00 +5°C° 0.1 mm 5 mps 745 mmHg 84%
09:00 +5°C° 0.1 mm 6 mps 745 mmHg 82%
10:00 +5°C° 0.1 mm 6 mps 746 mmHg 80%
11:00 +7°C° 0.1 mm 6 mps 746 mmHg 75%
12:00 +6°C° 0.1 mm 7 mps 746 mmHg 69%
13:00 +8°C° 0.1 mm 7 mps 746 mmHg 64%
14:00 +6°C° 0.2 mm 7 mps 746 mmHg 70%
15:00 +7°C° 0.2 mm 6 mps 746 mmHg 77%
16:00 +5°C° 0.2 mm 6 mps 746 mmHg 83%
17:00 +5°C° 0.3 mm 6 mps 746 mmHg 84%
18:00 +6°C° 0.3 mm 5 mps 746 mmHg 86%
19:00 +6°C° 0.3 mm 5 mps 745 mmHg 87%
20:00 +6°C° 0.2 mm 5 mps 745 mmHg 87%
21:00 +6°C° 0.2 mm 5 mps 745 mmHg 87%
22:00 +6°C° 0.2 mm 5 mps 745 mmHg 88%
23:00 +6°C° 0.3 mm 5 mps 745 mmHg 89%

Tomorrow, 22 September, Tuesday

Time Temperature Precipitation Wind Pressure Humidity
00:00 +7°C° 0.3 mm 5 mps 745 mmHg 90%
01:00 +7°C° 0.3 mm 5 mps 745 mmHg 92%
02:00 +7°C° 0.2 mm 5 mps 745 mmHg 92%
03:00 +7°C° 0.2 mm 5 mps 745 mmHg 93%
04:00 +6°C° 0.2 mm 5 mps 746 mmHg 93%
05:00 +7°C° 0 mm 5 mps 746 mmHg 92%
06:00 +7°C° 0 mm 5 mps 746 mmHg 92%
07:00 +7°C° 0 mm 5 mps 746 mmHg 91%
08:00 +7°C° 0 mm 5 mps 747 mmHg 88%
09:00 +8°C° 0 mm 5 mps 747 mmHg 86%
10:00 +8°C° 0 mm 5 mps 747 mmHg 83%
11:00 +9°C° 0 mm 5 mps 747 mmHg 82%
12:00 +9°C° 0 mm 6 mps 747 mmHg 80%
13:00 +10°C° 0 mm 6 mps 747 mmHg 78%
14:00 +10°C° 0 mm 6 mps 747 mmHg 77%
15:00 +11°C° 0 mm 6 mps 747 mmHg 75%
16:00 +13°C° 0 mm 6 mps 746 mmHg 74%
17:00 +13°C° 0 mm 6 mps 746 mmHg 76%
18:00 +11°C° 0 mm 6 mps 746 mmHg 78%
19:00 +11°C° 0 mm 6 mps 745 mmHg 80%
20:00 +13°C° 0 mm 6 mps 745 mmHg 80%
21:00 +12°C° 0 mm 7 mps 745 mmHg 80%
22:00 +12°C° 0 mm 7 mps 745 mmHg 79%
23:00 +12°C° 0 mm 7 mps 744 mmHg 81%

Day after tomorrow, 23 September, Wednesday

Time Temperature Precipitation Wind Pressure Humidity
00:00 +12°C° 0 mm 7 mps 744 mmHg 83%
01:00 +12°C° 0 mm 7 mps 743 mmHg 85%
02:00 +12°C° 0.1 mm 7 mps 743 mmHg 84%
03:00 +12°C° 0.1 mm 7 mps 743 mmHg 84%
04:00 +12°C° 0.1 mm 7 mps 743 mmHg 83%
05:00 +12°C° 0.1 mm 7 mps 744 mmHg 84%
06:00 +11°C° 0.1 mm 7 mps 744 mmHg 85%
07:00 +11°C° 0.1 mm 7 mps 744 mmHg 86%
08:00 +11°C° 0.1 mm 7 mps 745 mmHg 80%
09:00 +12°C° 0.1 mm 8 mps 745 mmHg 75%
10:00 +12°C° 0.1 mm 8 mps 746 mmHg 69%
11:00 +12°C° 0 mm 8 mps 746 mmHg 64%
12:00 +13°C° 0 mm 8 mps 747 mmHg 58%
13:00 +13°C° 0 mm 8 mps 747 mmHg 53%
14:00 +13°C° 0 mm 8 mps 748 mmHg 52%
15:00 +13°C° 0 mm 8 mps 748 mmHg 51%
16:00 +14°C° 0 mm 7 mps 749 mmHg 50%
17:00 +11°C° 0 mm 6 mps 749 mmHg 55%
18:00 +10°C° 0 mm 5 mps 750 mmHg 60%
19:00 +10°C° 0 mm 3 mps 750 mmHg 65%
20:00 +9°C° 0 mm 3 mps 751 mmHg 69%
21:00 +8°C° 0 mm 3 mps 752 mmHg 72%
22:00 +8°C° 0 mm 2 mps 752 mmHg 75%
23:00 +7°C° 0 mm 2 mps 753 mmHg 77%

24 September, Thursday

Time Temperature Precipitation Wind Pressure Humidity
00:00 +7°C° 0 mm 2 mps 753 mmHg 80%
01:00 +7°C° 0 mm 1 mps 753 mmHg 82%
02:00 +7°C° 0 mm 1 mps 754 mmHg 84%
03:00 +7°C° 0 mm 1 mps 754 mmHg 86%
04:00 +6°C° 0 mm 1 mps 755 mmHg 87%
05:00 +6°C° 0 mm 1 mps 755 mmHg 87%
06:00 +5°C° 0 mm 0 mps 756 mmHg 87%
07:00 +5°C° 0 mm 0 mps 757 mmHg 86%
08:00 +7°C° 0 mm 0 mps 757 mmHg 79%
09:00 +9°C° 0 mm 0 mps 757 mmHg 72%
10:00 +10°C° 0 mm 0 mps 758 mmHg 65%
11:00 +12°C° 0 mm 0 mps 758 mmHg 60%
12:00 +13°C° 0 mm 0 mps 758 mmHg 56%
13:00 +14°C° 0 mm 0 mps 758 mmHg 52%
14:00 +14°C° 0 mm 0 mps 759 mmHg 51%
15:00 +14°C° 0 mm 0 mps 759 mmHg 50%
16:00 +14°C° 0 mm 0 mps 759 mmHg 49%
17:00 +13°C° 0 mm 0 mps 759 mmHg 54%
18:00 +13°C° 0 mm 1 mps 759 mmHg 59%
19:00 +11°C° 0 mm 1 mps 759 mmHg 64%
20:00 +11°C° 0 mm 1 mps 759 mmHg 66%
21:00 +10°C° 0 mm 1 mps 759 mmHg 68%
22:00 +10°C° 0 mm 1 mps 760 mmHg 70%
23:00 +10°C° 0 mm 1 mps 760 mmHg 71%

25 September, Friday

Time Temperature Precipitation Wind Pressure Humidity
00:00 +9°C° 0 mm 1 mps 760 mmHg 72%
01:00 +9°C° 0 mm 1 mps 760 mmHg 73%
02:00 +9°C° 0 mm 1 mps 760 mmHg 74%
03:00 +9°C° 0 mm 1 mps 760 mmHg 75%
04:00 +8°C° 0 mm 1 mps 761 mmHg 76%
05:00 +8°C° 0 mm 1 mps 761 mmHg 76%
06:00 +8°C° 0 mm 1 mps 761 mmHg 77%
07:00 +8°C° 0 mm 1 mps 761 mmHg 77%
08:00 +10°C° 0 mm 1 mps 761 mmHg 72%
09:00 +12°C° 0 mm 1 mps 761 mmHg 66%
10:00 +13°C° 0 mm 2 mps 761 mmHg 60%
11:00 +14°C° 0 mm 2 mps 761 mmHg 56%
12:00 +15°C° 0 mm 2 mps 761 mmHg 52%
13:00 +17°C° 0 mm 2 mps 761 mmHg 48%
14:00 +17°C° 0 mm 2 mps 761 mmHg 48%
15:00 +17°C° 0 mm 2 mps 761 mmHg 49%
16:00 +17°C° 0 mm 2 mps 761 mmHg 49%
17:00 +15°C° 0 mm 1 mps 761 mmHg 54%
18:00 +14°C° 0 mm 1 mps 761 mmHg 59%
19:00 +12°C° 0 mm 1 mps 761 mmHg 64%
20:00 +11°C° 0 mm 1 mps 761 mmHg 65%
21:00 +11°C° 0 mm 1 mps 761 mmHg 66%
22:00 +10°C° 0 mm 1 mps 762 mmHg 66%
23:00 +10°C° 0 mm 1 mps 762 mmHg 67%

26 September, Saturday

Time Temperature Precipitation Wind Pressure Humidity
00:00 +10°C° 0 mm 1 mps 762 mmHg 68%
01:00 +9°C° 0 mm 1 mps 762 mmHg 69%
02:00 +9°C° 0 mm 1 mps 762 mmHg 70%
03:00 +9°C° 0 mm 1 mps 762 mmHg 71%
04:00 +9°C° 0 mm 1 mps 762 mmHg 72%
05:00 +9°C° 0 mm 1 mps 762 mmHg 73%
06:00 +8°C° 0 mm 1 mps 763 mmHg 74%
07:00 +8°C° 0 mm 1 mps 763 mmHg 75%
08:00 +10°C° 0 mm 1 mps 763 mmHg 68%
09:00 +12°C° 0 mm 1 mps 763 mmHg 62%
10:00 +14°C° 0 mm 1 mps 763 mmHg 56%
11:00 +15°C° 0 mm 2 mps 763 mmHg 52%
12:00 +16°C° 0 mm 2 mps 763 mmHg 49%
13:00 +17°C° 0 mm 2 mps 763 mmHg 45%
14:00 +17°C° 0 mm 2 mps 763 mmHg 46%
15:00 +18°C° 0 mm 1 mps 763 mmHg 47%
16:00 +18°C° 0 mm 1 mps 763 mmHg 47%
17:00 +16°C° 0 mm 1 mps 763 mmHg 52%
18:00 +14°C° 0 mm 1 mps 763 mmHg 57%
19:00 +12°C° 0 mm 0 mps 763 mmHg 62%
20:00 +11°C° 0 mm 0 mps 763 mmHg 64%
21:00 +12°C° 0 mm 1 mps 763 mmHg 67%
22:00 +11°C° 0 mm 1 mps 763 mmHg 70%
23:00 +11°C° 0 mm 1 mps 763 mmHg 72%
Show more